Location: Cuiry
(49.3858°N, 3.7708°E)
Time: 21:05:09
(UTC+00:00)

COSMO-SKYMED 1 - Pass Details

Date: 12 January 2026
Orbit: 577 x 579 km, 97.9° (Epoch: 16 February)

Event Time Altitude Azimuth Distance (km) Brightness Sun altitude
Exits shadow 18:45:46 37° 346° (NNW) 918 3.4 -24.6°
Maximum altitude 18:47:07 55° 288° (WNW) 700 3.0 -24.8°
Drops below altitude 10° 18:51:07 10° 211° (SSW) 1,889 5.4 -25.5°
Sets 18:53:17 0° 207° (SSW) 2,783 6.3 -25.8°
